| time (UTC) | temp F | wind direction | speed MPH | gust MPH | rain 1hr in | rain 24hr in | rain mn in | humidity % | barometer mb |
| 20260502170154 | 52 | 218 | 0.0 | 200.0 | 0.00 | 0.00 | 0.06 | 77 | 800.8 |
| 20260502164149 | 51 | 186 | 1.0 | 200.0 | 0.00 | 0.00 | 0.06 | 76 | 684.9 |
| 20260502163649 | 51 | 175 | 0.0 | 200.0 | 0.00 | 0.00 | 0.06 | 78 | 671.9 |
| 20260502163148 | 51 | 175 | 0.0 | 200.0 | 0.00 | 0.00 | 0.06 | 80 | 663.9 |
| 20260502162647 | 51 | 175 | 0.0 | 200.0 | 0.00 | 0.00 | 0.06 | 83 | 649.6 |
| 20260502162147 | 51 | 175 | 0.0 | 200.0 | 0.00 | 0.00 | 0.06 | 83 | 619.2 |
| 20260502161646 | 51 | 156 | 1.0 | 200.0 | 0.00 | 0.00 | 0.06 | 81 | 555.8 |
| 20260502161145 | 50 | 126 | 0.0 | 200.0 | 0.00 | 0.00 | 0.06 | 83 | 528.8 |
| 20260502160644 | 50 | 124 | 0.0 | 200.0 | 0.00 | 0.00 | 0.06 | 85 | 526.3 |
| 20260502160142 | 50 | 124 | 0.0 | 200.0 | 0.00 | 0.00 | 0.06 | 86 | 525.4 |
| 20260502151549 | 50 | 122 | 0.0 | 200.0 | 0.00 | 0.00 | 0.06 | 89 | 520.7 |
| 20260502151048 | 50 | 122 | 0.0 | 200.0 | 0.00 | 0.00 | 0.06 | 88 | 521.1 |
| 20260502150547 | 50 | 123 | 0.0 | 200.0 | 0.00 | 0.00 | 0.06 | 88 | 521.4 |
| 20260502123422 | 46 | 123 | 0.0 | 200.0 | 0.02 | 0.00 | 0.04 | 94 | 523.9 |
| 20260502122922 | 46 | 123 | 0.0 | 200.0 | 0.02 | 0.00 | 0.04 | 94 | 525.1 |
| 20260502122421 | 46 | 123 | 0.0 | 200.0 | 0.02 | 0.00 | 0.04 | 94 | 525.0 |
| 20260502121920 | 46 | 123 | 0.0 | 200.0 | 0.02 | 0.00 | 0.04 | 94 | 524.3 |
| 20260502120903 | 46 | 123 | 0.0 | 200.0 | 0.01 | 0.00 | 0.03 | 94 | 523.6 |
| 20260502115846 | 46 | 123 | 0.0 | 200.0 | 0.01 | 0.00 | 0.03 | 95 | 524.4 |
| 20260502114829 | 46 | 123 | 0.0 | 200.0 | 0.00 | 0.00 | 0.02 | 95 | 523.8 |
| 20260502113812 | 46 | 123 | 0.0 | 200.0 | 0.01 | 0.00 | 0.02 | 95 | 523.4 |
| 20260502113311 | 46 | 123 | 0.0 | 200.0 | 0.01 | 0.00 | 0.02 | 95 | 524.2 |
| 20260502112810 | 46 | 123 | 0.0 | 200.0 | 0.01 | 0.00 | 0.02 | 95 | 525.2 |
| 20260502111237 | 45 | 123 | 0.0 | 200.0 | 0.02 | 0.00 | 0.02 | 95 | 524.8 |
| 20260502110736 | 45 | 123 | 0.0 | 200.0 | 0.02 | 0.00 | 0.02 | 94 | 524.7 |
| 20260502110235 | 45 | 123 | 0.0 | 200.0 | 0.02 | 0.00 | 0.02 | 94 | 524.4 |
| 20260502105734 | 45 | 123 | 0.0 | 200.0 | 0.02 | 0.00 | 0.02 | 94 | 523.9 |
| 20260502105233 | 45 | 123 | 0.0 | 200.0 | 0.02 | 0.00 | 0.02 | 93 | 523.8 |
| 20260502104732 | 45 | 123 | 0.0 | 200.0 | 0.02 | 0.00 | 0.02 | 93 | 524.1 |
| 20260502104231 | 45 | 123 | 0.0 | 200.0 | 0.02 | 0.00 | 0.02 | 93 | 523.8 |
| 20260502103730 | 45 | 123 | 0.0 | 200.0 | 0.01 | 0.00 | 0.01 | 93 | 523.1 |
| 20260502103229 | 45 | 123 | 0.0 | 200.0 | 0.01 | 0.00 | 0.01 | 93 | 522.7 |
| 20260502102728 | 45 | 123 | 0.0 | 200.0 | 0.01 | 0.00 | 0.01 | 93 | 523.1 |
| 20260502102227 | 45 | 123 | 0.0 | 200.0 | 0.01 | 0.00 | 0.01 | 92 | 523.4 |
| 20260502101727 | 45 | 123 | 0.0 | 200.0 | 0.01 | 0.00 | 0.01 | 92 | 523.2 |
| 20260502101226 | 45 | 123 | 0.0 | 200.0 | 0.01 | 0.00 | 0.01 | 92 | 523.6 |
| 20260502100725 | 45 | 123 | 0.0 | 200.0 | 0.00 | 0.00 | 0.00 | 92 | 523.4 |
| 20260502100224 | 45 | 123 | 0.0 | 200.0 | 0.00 | 0.00 | 0.00 | 91 | 523.7 |
| 20260502091114 | 45 | 123 | 0.0 | 200.0 | 0.00 | 0.00 | 0.00 | 89 | 524.4 |
| 20260502090613 | 45 | 123 | 0.0 | 200.0 | 0.00 | 0.00 | 0.00 | 89 | 524.3 |
| 20260502071039 | 46 | 123 | 0.0 | 200.0 | 0.00 | 0.00 | 0.00 | 85 | 523.3 |
| 20260502070539 | 46 | 123 | 0.0 | 200.0 | 0.00 | 0.00 | 0.00 | 86 | 523.2 |
| 20260502070037 | 46 | 123 | 0.0 | 200.0 | 0.00 | 0.00 | 0.00 | 86 | 523.5 |
| 20260502065537 | 46 | 123 | 0.0 | 200.0 | 0.00 | 0.00 | 0.00 | 86 | 524.0 |
| 20260502065036 | 46 | 123 | 0.0 | 200.0 | 0.00 | 0.00 | 0.00 | 86 | 524.0 |
| 20260502064534 | 46 | 123 | 0.0 | 200.0 | 0.00 | 0.00 | 0.00 | 85 | 524.0 |
| 20260502063518 | 46 | 123 | 0.0 | 200.0 | 0.00 | 0.00 | 0.00 | 86 | 524.2 |
| 20260502063016 | 46 | 123 | 0.0 | 200.0 | 0.00 | 0.00 | 0.00 | 86 | 524.1 |
| 20260502062516 | 46 | 123 | 0.0 | 200.0 | 0.00 | 0.00 | 0.00 | 86 | 524.0 |
| 20260502061500 | 46 | 123 | 0.0 | 200.0 | 0.00 | 0.00 | 0.00 | 85 | 524.2 |
| 20260502060959 | 46 | 123 | 0.0 | 200.0 | 0.00 | 0.00 | 0.00 | 85 | 523.4 |
| 20260502060457 | 47 | 123 | 0.0 | 200.0 | 0.00 | 0.00 | 0.00 | 84 | 523.0 |
| 20260502055957 | 47 | 123 | 0.0 | 200.0 | 0.00 | 0.00 | 0.00 | 84 | 522.5 |
| 20260502055456 | 47 | 123 | 0.0 | 200.0 | 0.00 | 0.00 | 0.00 | 84 | 522.7 |
| 20260502054954 | 47 | 123 | 0.0 | 200.0 | 0.00 | 0.00 | 0.00 | 83 | 522.6 |
| 20260502053938 | 47 | 123 | 0.0 | 200.0 | 0.00 | 0.00 | 0.00 | 81 | 523.9 |
| 20260502053436 | 47 | 123 | 0.0 | 200.0 | 0.00 | 0.00 | 0.00 | 81 | 523.7 |
| 20260502052935 | 47 | 123 | 0.0 | 200.0 | 0.00 | 0.00 | 0.00 | 81 | 523.6 |
| 20260502052435 | 47 | 123 | 0.0 | 200.0 | 0.00 | 0.00 | 0.00 | 81 | 523.6 |
| 20260502051934 | 47 | 123 | 0.0 | 200.0 | 0.00 | 0.00 | 0.00 | 80 | 523.7 |
| 20260502051433 | 47 | 123 | 0.0 | 200.0 | 0.00 | 0.00 | 0.00 | 80 | 523.4 |
| 20260502050932 | 47 | 123 | 0.0 | 200.0 | 0.00 | 0.00 | 0.00 | 80 | 523.3 |
| 20260502050431 | 47 | 123 | 0.0 | 200.0 | 0.00 | 0.00 | 0.00 | 81 | 523.5 |
| 20260502045930 | 47 | 123 | 0.0 | 200.0 | 0.00 | 0.00 | 0.00 | 80 | 523.3 |
| 20260502045429 | 47 | 123 | 0.0 | 200.0 | 0.00 | 0.00 | 0.00 | 81 | 523.3 |
| 20260502044928 | 47 | 123 | 0.0 | 200.0 | 0.00 | 0.00 | 0.00 | 80 | 523.9 |
| 20260502044427 | 47 | 123 | 0.0 | 200.0 | 0.00 | 0.00 | 0.00 | 80 | 523.7 |
| 20260502043926 | 47 | 123 | 0.0 | 200.0 | 0.00 | 0.00 | 0.00 | 79 | 523.8 |
| 20260502043425 | 47 | 123 | 0.0 | 200.0 | 0.00 | 0.00 | 0.00 | 79 | 523.9 |
| 20260502042924 | 47 | 123 | 0.0 | 200.0 | 0.00 | 0.00 | 0.00 | 79 | 524.0 |
| 20260502042423 | 47 | 123 | 0.0 | 200.0 | 0.00 | 0.00 | 0.00 | 78 | 524.1 |
| 20260502041922 | 47 | 123 | 0.0 | 200.0 | 0.00 | 0.00 | 0.00 | 79 | 524.1 |
| 20260502041421 | 47 | 123 | 0.0 | 200.0 | 0.00 | 0.00 | 0.00 | 79 | 523.9 |
| 20260502040920 | 47 | 123 | 0.0 | 200.0 | 0.00 | 0.00 | 0.00 | 78 | 524.2 |
| 20260502040419 | 47 | 123 | 0.0 | 200.0 | 0.00 | 0.00 | 0.00 | 78 | 524.4 |
| 20260502035918 | 47 | 123 | 0.0 | 200.0 | 0.00 | 0.00 | 0.00 | 77 | 524.3 |
| 20260502035417 | 47 | 123 | 0.0 | 200.0 | 0.00 | 0.00 | 0.00 | 78 | 524.0 |
| 20260502034916 | 47 | 123 | 0.0 | 200.0 | 0.00 | 0.00 | 0.00 | 78 | 523.6 |
| 20260502034415 | 47 | 123 | 0.0 | 200.0 | 0.00 | 0.00 | 0.00 | 78 | 523.4 |
| 20260502033358 | 47 | 123 | 0.0 | 200.0 | 0.00 | 0.00 | 0.00 | 78 | 523.2 |
| 20260502032342 | 47 | 123 | 0.0 | 200.0 | 0.00 | 0.00 | 0.00 | 78 | 523.7 |
| 20260502031326 | 47 | 123 | 0.0 | 200.0 | 0.00 | 0.00 | 0.00 | 76 | 523.8 |
| 20260502030825 | 47 | 123 | 0.0 | 200.0 | 0.00 | 0.00 | 0.00 | 76 | 523.9 |
| 20260502030324 | 47 | 123 | 0.0 | 200.0 | 0.00 | 0.00 | 0.00 | 77 | 523.4 |
| 20260502025823 | 47 | 123 | 0.0 | 200.0 | 0.00 | 0.00 | 0.00 | 76 | 523.3 |
| 20260502025322 | 47 | 123 | 0.0 | 200.0 | 0.00 | 0.00 | 0.00 | 77 | 523.2 |
| 20260502024821 | 47 | 123 | 0.0 | 200.0 | 0.00 | 0.00 | 0.00 | 76 | 523.2 |
| 20260502024320 | 47 | 123 | 0.0 | 200.0 | 0.00 | 0.00 | 0.00 | 76 | 523.5 |
| 20260502023819 | 47 | 123 | 0.0 | 200.0 | 0.00 | 0.00 | 0.00 | 77 | 523.7 |
| 20260502023318 | 47 | 123 | 0.0 | 200.0 | 0.00 | 0.00 | 0.00 | 77 | 523.5 |
| 20260502022817 | 47 | 123 | 0.0 | 200.0 | 0.00 | 0.00 | 0.00 | 76 | 523.8 |
| 20260502021800 | 47 | 123 | 0.0 | 200.0 | 0.00 | 0.00 | 0.00 | 75 | 523.6 |
| 20260502021259 | 47 | 123 | 0.0 | 200.0 | 0.00 | 0.00 | 0.00 | 74 | 523.6 |
| 20260502020758 | 47 | 123 | 0.0 | 200.0 | 0.00 | 0.00 | 0.00 | 75 | 523.1 |
| 20260502020257 | 47 | 123 | 0.0 | 200.0 | 0.00 | 0.00 | 0.00 | 75 | 522.2 |
| 20260502015756 | 47 | 123 | 0.0 | 200.0 | 0.00 | 0.00 | 0.00 | 76 | 520.5 |
| 20260502014739 | 46 | 123 | 0.0 | 200.0 | 0.00 | 0.00 | 0.00 | 73 | 510.8 |
| 20260502014238 | 46 | 123 | 0.0 | 200.0 | 0.00 | 0.00 | 0.00 | 73 | 499.2 |
| 20260502013737 | 46 | 123 | 0.0 | 200.0 | 0.00 | 0.00 | 0.00 | 73 | 477.3 |
| 20260502013236 | 46 | 123 | 0.0 | 200.0 | 0.00 | 0.00 | 0.00 | 73 | 433.3 |
| 20260502012735 | 46 | 80 | 0.0 | 200.0 | 0.00 | 0.00 | 0.00 | 74 | 394.2 |
| 20260502011718 | 46 | 80 | 0.0 | 200.0 | 0.00 | 0.00 | 0.00 | 73 | 393.8 |
| 20260502011217 | 47 | 80 | 0.0 | 200.0 | 0.00 | 0.00 | 0.00 | 73 | 393.6 |
| 20260502010716 | 47 | 80 | 0.0 | 200.0 | 0.00 | 0.00 | 0.00 | 72 | 393.1 |
| 20260502010215 | 47 | 80 | 0.0 | 200.0 | 0.00 | 0.00 | 0.00 | 71 | 393.2 |
| 20260502005158 | 48 | 80 | 0.0 | 200.0 | 0.00 | 0.00 | 0.00 | 68 | 393.3 |
| 20260502004657 | 48 | 80 | 0.0 | 200.0 | 0.00 | 0.00 | 0.00 | 68 | 393.4 |
| 20260502004156 | 49 | 80 | 0.0 | 200.0 | 0.00 | 0.00 | 0.00 | 67 | 393.6 |
| 20260502003655 | 49 | 80 | 0.0 | 200.0 | 0.00 | 0.00 | 0.00 | 65 | 393.5 |
| 20260502003154 | 50 | 80 | 0.0 | 200.0 | 0.00 | 0.00 | 0.00 | 65 | 393.7 |
| 20260502002653 | 50 | 80 | 0.0 | 200.0 | 0.00 | 0.00 | 0.00 | 64 | 393.6 |
| 20260502002152 | 51 | 80 | 0.0 | 200.0 | 0.00 | 0.00 | 0.00 | 61 | 393.5 |
| 20260502001651 | 51 | 80 | 0.0 | 200.0 | 0.00 | 0.00 | 0.00 | 62 | 393.2 |
| 20260502001150 | 51 | 80 | 0.0 | 200.0 | 0.00 | 0.00 | 0.00 | 60 | 393.4 |
| 20260502000649 | 52 | 80 | 0.0 | 200.0 | 0.00 | 0.00 | 0.00 | 59 | 393.4 |
| 20260501234600 | 54 | 80 | 0.0 | 200.0 | 0.00 | 0.00 | 0.00 | 59 | 393.8 |
| 20260501234059 | 55 | 80 | 0.0 | 200.0 | 0.00 | 0.00 | 0.00 | 58 | 393.8 |
| 20260501233558 | 55 | 80 | 0.0 | 200.0 | 0.00 | 0.00 | 0.00 | 54 | 393.8 |
| 20260501233057 | 56 | 80 | 0.0 | 200.0 | 0.00 | 0.00 | 0.00 | 54 | 393.8 |
| 20260501232040 | 56 | 80 | 0.0 | 200.0 | 0.00 | 0.00 | 0.00 | 48 | 394.1 |
| 20260501231023 | 57 | 80 | 0.0 | 200.0 | 0.00 | 0.00 | 0.00 | 44 | 393.9 |
| 20260501230522 | 58 | 80 | 0.0 | 200.0 | 0.00 | 0.00 | 0.00 | 44 | 393.9 |
| 20260501230021 | 58 | 80 | 0.0 | 200.0 | 0.00 | 0.00 | 0.00 | 43 | 393.3 |
| 20260501225520 | 58 | 80 | 0.0 | 200.0 | 0.00 | 0.00 | 0.00 | 40 | 391.8 |
| 20260501225019 | 58 | 79 | 0.0 | 200.0 | 0.00 | 0.00 | 0.00 | 42 | 388.7 |
| 20260501224518 | 59 | 71 | 0.0 | 200.0 | 0.00 | 0.00 | 0.00 | 39 | 397.4 |
| 20260501224017 | 59 | 71 | 0.0 | 200.0 | 0.00 | 0.00 | 0.00 | 38 | 428.3 |
| 20260501223516 | 59 | 121 | 0.0 | 200.0 | 0.00 | 0.00 | 0.00 | 34 | 515.1 |
| 20260501223016 | 59 | 125 | 0.0 | 200.0 | 0.00 | 0.00 | 0.00 | 35 | 509.8 |
| 20260501222515 | 59 | 130 | 1.0 | 200.0 | 0.00 | 0.00 | 0.00 | 36 | 491.2 |
| 20260501221459 | 60 | 111 | 1.0 | 200.0 | 0.00 | 0.00 | 0.00 | 33 | 416.0 |
| 20260501220958 | 60 | 81 | 0.0 | 200.0 | 0.00 | 0.00 | 0.00 | 34 | 435.3 |
| 20260501215942 | 60 | 14 | 0.0 | 200.0 | 0.00 | 0.00 | 0.00 | 35 | 613.2 |
| 20260501215440 | 60 | 270 | 0.0 | 200.0 | 0.00 | 0.00 | 0.00 | 34 | 797.6 |
| 20260501214939 | 60 | 253 | 1.0 | 200.0 | 0.00 | 0.00 | 0.00 | 32 | 638.3 |
| 20260501214438 | 60 | 181 | 0.0 | 200.0 | 0.00 | 0.00 | 0.00 | 36 | 467.9 |
| 20260501213937 | 60 | 49 | 0.0 | 200.0 | 0.00 | 0.00 | 0.00 | 32 | 370.8 |
| 20260501213436 | 60 | 15 | 0.0 | 200.0 | 0.00 | 0.00 | 0.00 | 31 | 476.7 |
| 20260501212935 | 60 | 298 | 1.0 | 200.0 | 0.00 | 0.00 | 0.00 | 34 | 645.0 |
| 20260501211919 | 60 | 14 | 1.0 | 200.0 | 0.00 | 0.00 | 0.00 | 31 | 223.0 |
| 20260501211418 | 60 | 13 | 1.0 | 200.0 | 0.00 | 0.00 | 0.00 | 32 | 211.8 |
| 20260501210917 | 61 | 11 | 1.0 | 200.0 | 0.00 | 0.00 | 0.00 | 31 | 229.4 |
| 20260501210416 | 61 | 7 | 1.0 | 200.0 | 0.00 | 0.00 | 0.00 | 31 | 268.8 |
| 20260501205915 | 61 | 9 | 0.0 | 200.0 | 0.00 | 0.00 | 0.00 | 33 | 323.9 |
| 20260501205414 | 61 | 38 | 2.0 | 200.0 | 0.00 | 0.00 | 0.00 | 31 | 443.0 |
| 20260501204913 | 61 | 38 | 2.0 | 200.0 | 0.00 | 0.00 | 0.00 | 32 | 610.8 |
| 20260501204412 | 61 | 221 | 1.0 | 200.0 | 0.00 | 0.00 | 0.00 | 32 | 849.3 |
| 20260501203911 | 61 | 353 | 1.0 | 200.0 | 0.00 | 0.00 | 0.00 | 31 | 753.7 |
| 20260501203411 | 61 | 298 | 1.0 | 200.0 | 0.00 | 0.00 | 0.00 | 34 | 381.1 |
| 20260501202909 | 61 | 27 | 1.0 | 200.0 | 0.00 | 0.00 | 0.00 | 33 | 244.9 |
| 20260501202409 | 61 | 27 | 1.0 | 200.0 | 0.00 | 0.00 | 0.00 | 32 | 251.8 |
| 20260501201908 | 61 | 28 | 1.0 | 200.0 | 0.00 | 0.00 | 0.00 | 31 | 264.6 |
| 20260501200335 | 61 | 48 | 0.0 | 200.0 | 0.00 | 0.00 | 0.00 | 33 | 390.1 |
| 20260501195833 | 61 | 65 | 2.0 | 200.0 | 0.00 | 0.00 | 0.00 | 33 | 483.8 |
| 20260501195333 | 61 | 82 | 2.0 | 200.0 | 0.00 | 0.00 | 0.00 | 33 | 562.6 |
| 20260501194833 | 61 | 307 | 1.0 | 200.0 | 0.00 | 0.00 | 0.00 | 30 | 647.4 |
| 20260501194332 | 61 | 15 | 1.0 | 200.0 | 0.00 | 0.00 | 0.00 | 31 | 354.8 |
| 20260501193315 | 62 | 49 | 1.0 | 200.0 | 0.00 | 0.00 | 0.00 | 30 | 487.4 |
| 20260501192258 | 62 | 144 | 1.0 | 200.0 | 0.00 | 0.00 | 0.00 | 31 | 581.4 |
| 20260501191757 | 61 | 182 | 2.0 | 200.0 | 0.00 | 0.00 | 0.00 | 31 | 569.3 |
| 20260501191256 | 62 | 190 | 2.0 | 200.0 | 0.00 | 0.00 | 0.00 | 30 | 425.9 |
| 20260501190755 | 61 | 41 | 1.0 | 200.0 | 0.00 | 0.00 | 0.00 | 33 | 312.5 |
| 20260501190254 | 61 | 52 | 1.0 | 200.0 | 0.00 | 0.00 | 0.00 | 37 | 344.5 |
| 20260501185753 | 60 | 52 | 0.0 | 200.0 | 0.00 | 0.00 | 0.00 | 34 | 376.9 |
| 20260501185252 | 61 | 104 | 2.0 | 200.0 | 0.00 | 0.00 | 0.00 | 32 | 440.2 |
| 20260501184751 | 61 | 39 | 0.0 | 200.0 | 0.00 | 0.00 | 0.00 | 36 | 372.8 |
| 20260501184250 | 61 | 42 | 2.0 | 200.0 | 0.00 | 0.00 | 0.00 | 34 | 480.6 |
| 20260501183749 | 61 | 45 | 4.0 | 200.0 | 0.00 | 0.00 | 0.00 | 34 | 677.5 |
| 20260501183248 | 61 | 315 | 0.0 | 200.0 | 0.00 | 0.00 | 0.00 | 36 | 681.6 |
| 20260501182231 | 61 | 75 | 2.0 | 200.0 | 0.00 | 0.00 | 0.00 | 36 | 582.6 |
| 20260501181730 | 60 | 140 | 0.0 | 200.0 | 0.00 | 0.00 | 0.00 | 39 | 696.6 |
| 20260501181229 | 60 | 358 | 1.0 | 200.0 | 0.00 | 0.00 | 0.00 | 35 | 830.4 |
| 20260501180728 | 60 | 59 | 2.0 | 200.0 | 0.00 | 0.00 | 0.00 | 35 | 545.9 |
| 20260501180227 | 59 | 40 | 2.0 | 200.0 | 0.00 | 0.00 | 0.00 | 36 | 772.4 |
| 20260501175726 | 59 | 305 | 0.0 | 200.0 | 0.00 | 0.00 | 0.00 | 37 | 1057.8 |
| 20260501175225 | 59 | 0 | 1.0 | 200.0 | 0.00 | 0.00 | 0.00 | 38 | 994.3 |
| 20260501174724 | 58 | 283 | 2.0 | 200.0 | 0.00 | 0.00 | 0.00 | 40 | 804.2 |
| 20260501174223 | 58 | 276 | 0.0 | 200.0 | 0.00 | 0.00 | 0.00 | 38 | 753.3 |
| 20260501173722 | 58 | 250 | 1.0 | 200.0 | 0.00 | 0.00 | 0.00 | 38 | 535.9 |
| 20260501173221 | 58 | 55 | 1.0 | 200.0 | 0.00 | 0.00 | 0.00 | 40 | 424.5 |
| 20260501172720 | 59 | 59 | 1.0 | 200.0 | 0.00 | 0.00 | 0.00 | 40 | 530.2 |
| 20260501171718 | 59 | 21 | 1.0 | 200.0 | 0.00 | 0.00 | 0.00 | 39 | 378.2 |
| 20260501171217 | 58 | 42 | 2.0 | 200.0 | 0.00 | 0.00 | 0.00 | 42 | 521.7 |